sat.trackr.live / text

‹ back to catalog

ONEWEB-0398

NORAD 50478 · 2021-132K

PAYLOAD ACTIVE UNKNOWN

§ Identity

Operator
Country
UK
Launch date
2021-12-27
Launch site
TYMSC
Launch vehicle
Mass (kg)
RCS (m²)

Purposes: comms

External: N2YO · Heavens-Above · Gunter

§ Orbital elements

Epoch: 2026-05-25T02:14:12.568128Z

Period
109.80 min
Inclination
87.8918°
Eccentricity
0.0001595
Mean motion
13.11418632 rev/d
Perigee alt
1,216.5 km
Apogee alt
1,218.9 km
Semi-major
7,595.8 km
B*
-6.6377e-4
RAAN
25.6514°
Arg perigee
90.0009°
Mean anomaly
270.1302°
Rev number
21,258

§ Raw data

ONEWEB-03981 50478U 21132K   26145.09320102 -.00000223  00000+0 -66377-3 0  99982 50478  87.8918  25.6514 0001595  90.0009 270.1302 13.11418632212581

JSON: /api/v1/satellites/50478 · /tle

For live sub-satellite position, see the globe view (requires WebGL).

§ Visibility from observer

Set your observer location to see the next 7 days of passes ≥ 10°. The values pass through the URL so the page stays shareable.

No JS? Fill the form by hand. The geolocation button needs JavaScript.